When you browse on this site, cookies collect data to enhance your experience and personalize the content and advertising you see.
Visit our Privacy Policy to learn more. By continuing to use the site, you agree to this use of cookies and data.
  • In Austria
  • List of Countries
  • For 7 days
  • Water Temperature
  • Weather Map
  • News
  • Weather Widgets
  • user-avatar
    Login

    Hourly Weather Kiel

    Today, 26 May, Tuesday

    Time Temperature Precipitation Wind Pressure Humidity
    00:00 +8°C° 0 mm 2 mps 773 mmHg 96%
    01:00 +8°C° 0 mm 2 mps 774 mmHg 97%
    02:00 +8°C° 0 mm 2 mps 774 mmHg 97%
    03:00 +7°C° 0 mm 2 mps 774 mmHg 97%
    04:00 +7°C° 0 mm 2 mps 774 mmHg 97%
    05:00 +10°C° 0 mm 1 mps 774 mmHg 95%
    06:00 +11°C° 0 mm 1 mps 774 mmHg 93%
    07:00 +12°C° 0 mm 1 mps 775 mmHg 92%
    08:00 +14°C° 0 mm 1 mps 775 mmHg 88%
    09:00 +15°C° 0 mm 1 mps 775 mmHg 83%
    10:00 +18°C° 0 mm 1 mps 775 mmHg 79%
    11:00 +18°C° 0.1 mm 1 mps 775 mmHg 76%
    12:00 +19°C° 0.1 mm 1 mps 775 mmHg 73%
    13:00 +18°C° 0.1 mm 2 mps 775 mmHg 70%
    14:00 +19°C° 0.1 mm 1 mps 775 mmHg 71%
    15:00 +19°C° 0.1 mm 1 mps 775 mmHg 72%
    16:00 +19°C° 0.1 mm 1 mps 775 mmHg 73%
    17:00 +19°C° 0.1 mm 1 mps 774 mmHg 76%
    18:00 +18°C° 0.1 mm 1 mps 774 mmHg 80%
    19:00 +16°C° 0.1 mm 1 mps 774 mmHg 83%
    20:00 +14°C° 0 mm 1 mps 774 mmHg 85%
    21:00 +13°C° 0 mm 1 mps 774 mmHg 87%
    22:00 +12°C° 0 mm 1 mps 774 mmHg 89%
    23:00 +11°C° 0 mm 1 mps 774 mmHg 90%

    Tomorrow, 27 May, Wednesday

    Time Temperature Precipitation Wind Pressure Humidity
    00:00 +11°C° 0 mm 1 mps 774 mmHg 90%
    01:00 +10°C° 0 mm 2 mps 774 mmHg 91%
    02:00 +9°C° 0 mm 2 mps 774 mmHg 91%
    03:00 +8°C° 0 mm 2 mps 773 mmHg 92%
    04:00 +8°C° 0 mm 2 mps 773 mmHg 92%
    05:00 +9°C° 0 mm 2 mps 773 mmHg 89%
    06:00 +10°C° 0 mm 2 mps 773 mmHg 86%
    07:00 +12°C° 0 mm 3 mps 773 mmHg 82%
    08:00 +13°C° 0 mm 3 mps 773 mmHg 79%
    09:00 +16°C° 0 mm 3 mps 773 mmHg 75%
    10:00 +17°C° 0 mm 3 mps 773 mmHg 72%
    11:00 +17°C° 0.1 mm 4 mps 773 mmHg 72%
    12:00 +17°C° 0.1 mm 4 mps 773 mmHg 72%
    13:00 +17°C° 0.1 mm 4 mps 773 mmHg 73%
    14:00 +16°C° 0 mm 5 mps 773 mmHg 70%
    15:00 +16°C° 0 mm 5 mps 773 mmHg 67%
    16:00 +16°C° 0 mm 5 mps 773 mmHg 64%
    17:00 +15°C° 0 mm 5 mps 773 mmHg 67%
    18:00 +14°C° 0 mm 5 mps 773 mmHg 70%
    19:00 +12°C° 0 mm 5 mps 773 mmHg 72%
    20:00 +10°C° 0 mm 5 mps 773 mmHg 74%
    21:00 +9°C° 0 mm 5 mps 773 mmHg 76%
    22:00 +8°C° 0 mm 5 mps 773 mmHg 78%
    23:00 +7°C° 0 mm 5 mps 773 mmHg 83%

    Day after tomorrow, 28 May, Thursday

    Time Temperature Precipitation Wind Pressure Humidity
    00:00 +6°C° 0 mm 5 mps 773 mmHg 87%
    01:00 +5°C° 0 mm 5 mps 773 mmHg 92%
    02:00 +5°C° 0 mm 5 mps 773 mmHg 92%
    03:00 +3°C° 0 mm 5 mps 773 mmHg 93%
    04:00 +3°C° 0 mm 5 mps 773 mmHg 94%
    05:00 +6°C° 0 mm 5 mps 773 mmHg 87%
    06:00 +7°C° 0 mm 5 mps 773 mmHg 81%
    07:00 +9°C° 0 mm 6 mps 773 mmHg 74%
    08:00 +10°C° 0 mm 5 mps 773 mmHg 71%
    09:00 +12°C° 0 mm 5 mps 773 mmHg 68%
    10:00 +14°C° 0 mm 4 mps 773 mmHg 64%
    11:00 +14°C° 0 mm 4 mps 773 mmHg 63%
    12:00 +15°C° 0 mm 4 mps 773 mmHg 61%
    13:00 +17°C° 0 mm 4 mps 772 mmHg 59%
    14:00 +17°C° 0 mm 4 mps 772 mmHg 60%
    15:00 +17°C° 0 mm 4 mps 772 mmHg 60%
    16:00 +16°C° 0 mm 5 mps 772 mmHg 61%
    17:00 +15°C° 0 mm 5 mps 771 mmHg 65%
    18:00 +13°C° 0 mm 5 mps 771 mmHg 70%
    19:00 +12°C° 0 mm 5 mps 771 mmHg 74%
    20:00 +10°C° 0 mm 4 mps 771 mmHg 80%
    21:00 +8°C° 0 mm 4 mps 771 mmHg 86%
    22:00 +6°C° 0 mm 4 mps 771 mmHg 92%
    23:00 +5°C° 0 mm 3 mps 771 mmHg 92%

    29 May, Friday

    Time Temperature Precipitation Wind Pressure Humidity
    00:00 +5°C° 0 mm 3 mps 771 mmHg 91%
    01:00 +5°C° 0 mm 3 mps 771 mmHg 91%
    02:00 +5°C° 0 mm 3 mps 771 mmHg 90%
    03:00 +5°C° 0 mm 3 mps 771 mmHg 90%
    04:00 +6°C° 0 mm 2 mps 770 mmHg 89%
    05:00 +8°C° 0 mm 2 mps 770 mmHg 85%
    06:00 +9°C° 0 mm 2 mps 770 mmHg 81%
    07:00 +12°C° 0 mm 2 mps 770 mmHg 77%
    08:00 +13°C° 0 mm 2 mps 770 mmHg 74%
    09:00 +14°C° 0 mm 2 mps 770 mmHg 72%
    10:00 +15°C° 0 mm 2 mps 770 mmHg 69%
    11:00 +15°C° 0 mm 2 mps 770 mmHg 70%
    12:00 +15°C° 0 mm 2 mps 770 mmHg 70%
    13:00 +16°C° 0 mm 1 mps 770 mmHg 71%
    14:00 +16°C° 0 mm 1 mps 769 mmHg 70%
    15:00 +16°C° 0 mm 1 mps 769 mmHg 69%
    16:00 +18°C° 0 mm 1 mps 769 mmHg 68%
    17:00 +16°C° 0 mm 1 mps 769 mmHg 73%
    18:00 +15°C° 0 mm 1 mps 769 mmHg 77%
    19:00 +15°C° 0 mm 1 mps 769 mmHg 82%
    20:00 +13°C° 0 mm 1 mps 769 mmHg 84%
    21:00 +11°C° 0 mm 1 mps 769 mmHg 87%
    22:00 +10°C° 0 mm 1 mps 769 mmHg 89%
    23:00 +9°C° 0 mm 1 mps 769 mmHg 89%

    30 May, Saturday

    Time Temperature Precipitation Wind Pressure Humidity
    00:00 +9°C° 0 mm 1 mps 769 mmHg 89%
    01:00 +8°C° 0 mm 1 mps 769 mmHg 88%
    02:00 +8°C° 0 mm 1 mps 769 mmHg 88%
    03:00 +8°C° 0 mm 1 mps 769 mmHg 87%
    04:00 +7°C° 0 mm 0 mps 769 mmHg 87%
    05:00 +8°C° 0 mm 0 mps 769 mmHg 83%
    06:00 +10°C° 0 mm 0 mps 769 mmHg 79%
    07:00 +13°C° 0 mm 1 mps 769 mmHg 75%
    08:00 +14°C° 0 mm 1 mps 769 mmHg 71%
    09:00 +16°C° 0 mm 1 mps 769 mmHg 67%
    10:00 +18°C° 0 mm 1 mps 768 mmHg 64%
    11:00 +18°C° 0 mm 2 mps 768 mmHg 62%
    12:00 +18°C° 0 mm 2 mps 768 mmHg 60%
    13:00 +19°C° 0 mm 2 mps 768 mmHg 58%
    14:00 +19°C° 0 mm 2 mps 768 mmHg 58%
    15:00 +19°C° 0 mm 3 mps 768 mmHg 59%
    16:00 +19°C° 0 mm 3 mps 768 mmHg 59%
    17:00 +18°C° 0 mm 3 mps 768 mmHg 65%
    18:00 +17°C° 0 mm 2 mps 767 mmHg 71%
    19:00 +16°C° 0 mm 2 mps 767 mmHg 77%
    20:00 +15°C° 0 mm 2 mps 767 mmHg 78%
    21:00 +13°C° 0 mm 2 mps 768 mmHg 80%
    22:00 +12°C° 0 mm 2 mps 768 mmHg 82%
    23:00 +12°C° 0 mm 2 mps 768 mmHg 84%

    31 May, Sunday

    Time Temperature Precipitation Wind Pressure Humidity
    00:00 +11°C° 0 mm 1 mps 768 mmHg 86%
    01:00 +11°C° 0 mm 1 mps 768 mmHg 87%
    02:00 +11°C° 0 mm 1 mps 768 mmHg 87%
    03:00 +11°C° 0 mm 1 mps 768 mmHg 86%
    04:00 +11°C° 0 mm 1 mps 767 mmHg 85%
    05:00 +12°C° 0 mm 1 mps 767 mmHg 83%
    06:00 +13°C° 0 mm 1 mps 767 mmHg 80%
    07:00 +14°C° 0 mm 2 mps 767 mmHg 78%
    08:00 +16°C° 0 mm 2 mps 767 mmHg 72%
    09:00 +17°C° 0 mm 2 mps 767 mmHg 66%
    10:00 +18°C° 0 mm 3 mps 767 mmHg 60%
    11:00 +19°C° 0 mm 3 mps 767 mmHg 57%
    12:00 +19°C° 0 mm 3 mps 767 mmHg 55%
    13:00 +19°C° 0 mm 4 mps 767 mmHg 52%
    14:00 +19°C° 0 mm 3 mps 766 mmHg 53%
    15:00 +19°C° 0 mm 3 mps 766 mmHg 55%
    16:00 +19°C° 0 mm 3 mps 766 mmHg 56%
    17:00 +18°C° 0 mm 3 mps 766 mmHg 62%
    18:00 +17°C° 0 mm 2 mps 766 mmHg 68%
    19:00 +16°C° 0 mm 2 mps 765 mmHg 73%
    20:00 +14°C° 0 mm 2 mps 766 mmHg 75%
    21:00 +13°C° 0 mm 2 mps 766 mmHg 77%
    22:00 +10°C° 0 mm 2 mps 766 mmHg 79%
    23:00 +10°C° 0 mm 2 mps 766 mmHg 79%
    Show more